Flag for Czech Republic Weather past 2 weeks in Tábor, Czech Republic

Now
52 °F

Light rain. Overcast.


Feels Like: 52 °F
Forecast: 54 / 69 °F
Wind: 3 mph from Northwest

Location: Kocelovice

Current Time: Sep 2, 2014 at 5:08:04 AM

Latest Report: Sep 2, 2014 at 4:00 AM


Visibility: 6 mi

Pressure: 30.08 "Hg

Humidity: 97%

Dew point: 51 °F

Location of TáborLocation

Historic Weather in Tábor — Graph

°F

Tábor temperature yesterday

Maximum temperature yesterday: 58 °F (at 3:00 PM)
Minimum temperature yesterday: 51 °F (at 2:00 AM)
Average temperature yesterday: 54 °F

Past Weeks' High & Low Weather Summary

 TemperatureHumidityPressure
High72 °F (Aug 30, 3:00 PM)100% (Aug 21, 5:00 AM)30.16 "Hg (Aug 21, 5:00 AM)
Low40 °F (Aug 25, 6:00 AM)41% (Aug 28, 3:00 PM)29.70 "Hg (Aug 26, 2:00 PM)
Average56 °F79%29.98 "Hg
* Reported Aug 18 3:00 AM — Sep 2 3:00 AM, Tábor, Weather by CustomWeather, © 2014

Note: Actual official high and low records may vary slightly from our data, if they occured in-between our weather recording intervals... More about our weather records

Advertising

Tábor weather history for previous 24 hours

 ConditionsComfort  
Time TempWeatherWind HumidityBarometerVisibility
3:00 AM
Sep 2
52 °FLight rain. Overcast.3 mph97%30.09 "Hg9 mi
2:00 AM53 °FLight rain. Overcast.5 mph95%30.09 "Hg11 mi
1:00 AM53 °FLight rain. Overcast.5 mph93%30.09 "Hg12 mi
12:00 AM53 °FCool.2 mph93%30.10 "Hg12 mi
11:00 PM
Sep 1
54 °FCool.5 mph92%30.09 "Hg12 mi
10:00 PM54 °FOvercast.3 mph92%30.09 "Hg8 mi
9:00 PM55 °FLight rain. Overcast.2 mph92%30.09 "Hg9 mi
8:00 PM55 °FLight rain. Overcast.2 mph90%30.08 "Hg11 mi
7:00 PM56 °FOvercast.N/A87%30.07 "Hg12 mi
6:00 PM57 °FOvercast.3 mph82%30.05 "Hg12 mi
5:00 PM58 °FLight rain. Overcast.3 mph81%30.05 "Hg12 mi
4:00 PM57 °FOvercast.3 mph83%30.04 "Hg14 mi
3:00 PM58 °FOvercast.5 mph80%30.03 "Hg14 mi
2:00 PM58 °FSprinkles. Overcast.5 mph83%30.03 "Hg13 mi
1:00 PM57 °FLight rain. Overcast.3 mph86%30.03 "Hg12 mi
12:00 PM56 °FLight rain. Overcast.N/A91%30.03 "Hg12 mi
11:00 AM56 °FOvercast.3 mph87%30.01 "Hg12 mi
10:00 AM55 °FOvercast.3 mph91%30.01 "Hg10 mi
9:00 AM53 °FOvercast.N/A96%30.00 "Hg5 mi
8:00 AM52 °FLight rain. Low clouds.2 mph98%29.99 "Hg4 mi
7:00 AM52 °FLight rain. Cloudy.2 mph99%29.98 "Hg3 mi
6:00 AM51 °FLight rain. Overcast.N/A99%29.97 "Hg2 mi
5:00 AM52 °FCool.3 mph97%29.96 "Hg7 mi
Weather by CustomWeather, © 2014

See weather overviewHow to use our weather pages